Temp
19 19 20 21 21 22 23 23 23 23 23 23 24 24 24 24 24 24 24 25 26 26 26 25 26 27 27 29 30 31 33 34 34 33 34 35 35 34 34 35 34 33 32 30 27
19 19 20 21 22 23 23 23 23 23 23 24 24 24 24 24 24 23 25 26 26 26 26 26 28 28 30 31 32 33 34 34 35 35 34 34 34 34 34 35 35 34 30 29 26
19 20 20 21 22 22 23 23 23 24 24 24 24 24 24 24 24 28 26 26 26 26 26 27 29 29 31 32 33 34 34 35 34 33 33 34 34 34 35 34 34 33 32 28 27
19 20 20 21 22 22 23 23 24 24 24 24 24 24 24 24 30 25 26 26 26 25 26 28 29 30 32 33 33 33 34 33 34 33 33 34 34 34 34 33 33 33 32 29 27
19 20 21 21 22 22 23 24 24 24 25 25 24 24 24 25 28 27 27 26 26 24 27 28 30 31 33 34 33 33 34 33 33 33 33 33 34 34 33 33 33 32 31 30 28
20 20 21 21 22 22 23 23 24 24 24 24 24 25 25 30 26 26 27 26 25 26 28 29 30 31 31 33 33 33 33 33 33 33 33 34 34 34 33 33 33 32 32 31 29
20 20 21 21 22 22 23 23 23 24 24 24 24 25 25 27 26 25 25 25 26 27 29 29 29 30 32 33 32 32 33 34 34 34 34 34 34 33 32 33 32 32 30 30 30
20 20 21 22 22 23 23 23 23 23 23 24 25 25 28 26 26 26 27 27 27 27 28 29 28 30 31 32 32 33 35 34 34 34 34 34 33 33 33 32 31 30 30 29 28
20 21 21 22 23 23 23 23 23 23 24 24 25 24 29 26 26 27 27 28 27 28 28 28 29 30 32 33 34 34 35 34 34 34 34 34 34 33 33 32 31 30 29 29 28
20 21 21 22 23 23 23 23 23 24 24 25 25 26 28 29 28 28 27 28 29 29 29 29 30 33 33 34 33 34 34 34 33 34 34 34 33 33 32 32 31 30 28 28 27
20 21 21 22 23 23 23 23 24 24 23 29 30 29 29 29 27 28 28 28 29 30 32 31 32 33 34 33 33 33 33 33 33 33 33 33 33 33 32 32 31 30 29 28 27
20 21 21 22 23 23 23 25 22 22 28 28 27 27 28 29 30 29 28 29 30 32 32 32 32 33 33 33 32 33 33 33 33 33 33 33 32 33 32 32 31 31 29 28 27
20 21 21 22 22 23 23 22 21 22 27 29 29 30 29 29 31 30 29 30 32 32 32 33 33 32 32 32 32 33 33 32 32 33 34 33 33 32 32 31 31 30 30 28 27
20 21 21 22 22 23 24 22 22 22 29 31 30 30 29 30 31 31 30 31 32 33 32 33 32 32 32 32 32 33 32 32 32 32 32 33 31 32 32 32 31 30 30 28 27
19 20 21 22 22 24 22 22 22 23 30 32 32 29 30 31 32 31 30 31 32 32 32 32 32 31 31 32 31 32 32 31 32 32 32 33 32 32 32 31 31 31 29 28 27
19 20 21 21 21 22 22 22 23 28 30 31 32 31 32 31 32 31 30 30 31 32 32 32 31 32 32 31 31 31 31 32 33 33 31 33 32 32 32 32 31 30 28 27 26
20 20 21 21 23 22 22 24 29 30 32 32 32 33 33 32 32 32 32 31 31 30 31 32 31 32 31 31 32 31 32 31 31 32 32 32 31 32 32 31 31 29 28 27 27
20 20 21 21 21 21 22 28 27 32 32 32 32 33 32 33 33 32 32 32 32 32 32 31 30 31 31 31 30 30 30 29 28 30 32 31 30 30 32 30 29 28 28 27 26
20 20 21 21 21 21 24 28 30 32 31 31 32 31 32 32 31 32 31 32 33 32 30 31 31 31 31 30 30 30 29 31 29 31 30 32 32 31 31 30 29 29 28 27 25
20 20 23 21 21 22 27 26 30 30 29 30 30 32 31 32 31 31 31 32 31 31 31 31 29 31 30 30 30 29 30 29 30 27 28 31 30 30 29 29 29 28 27 27 25
19 23 22 22 21 24 27 30 30 28 28 29 30 31 30 31 31 32 32 31 31 31 31 31 30 30 29 29 29 29 29 29 30 29 28 28 30 30 29 29 28 27 26 25 24
18 25 22 22 25 27 29 29 25 28 27 29 29 30 30 30 30 30 30 30 29 30 29 30 30 29 30 30 30 29 28 29 28 27 29 28 28 30 29 29 28 27 25 24 23
18 22 22 22 26 28 28 27 27 28 28 29 29 29 30 29 28 29 30 28 28 29 28 29 28 28 28 30 30 27 28 28 28 28 26 26 28 31 30 29 28 26 24 22 21
16 24 24 23 25 25 27 27 27 25 27 27 28 28 28 28 29 28 28 28 27 28 24 25 27 26 27 28 29 27 28 28 28 26 27 28 28 29 29 28 26 24 23 21 21
18 23 20 25 25 25 26 26 26 27 26 26 27 27 28 27 28 27 28 28 27 24 25 27 25 26 27 28 28 28 27 28 27 28 26 27 27 28 27 26 25 24 22 21 20
17 18 19 21 21 22 18 25 25 27 26 26 26 28 28 27 27 27 28 28 27 27 26 27 24 25 25 26 27 26 27 27 27 27 27 27 27 28 25 24 24 23 22 21 20
13 15 15 20 22 23 25 25 24 25 25 25 25 26 26 26 26 26 26 27 27 26 26 25 25 24 24 26 26 25 26 27 27 27 27 26 26 26 24 23 22 21 21 20 19
Height
1524 1520 1517 1514 1510 1507 1504 1503 1501 1500 1498 1498 1497 1497 1496 1496 1496 1497 1498 1499 1498 1499 1500 1502 1503 1503 1503 1499 1497 1492 1482 1474 1472 1480 1476 1473 1476 1475 1476 1471 1473 1479 1481 1486 1493
1524 1520 1517 1513 1508 1505 1503 1501 1499 1498 1497 1496 1496 1495 1495 1495 1495 1496 1496 1495 1496 1497 1500 1503 1503 1502 1498 1494 1491 1487 1475 1473 1473 1476 1477 1477 1478 1476 1476 1473 1472 1476 1485 1488 1493
1524 1520 1516 1511 1507 1504 1502 1499 1498 1496 1495 1494 1494 1494 1494 1494 1495 1492 1493 1493 1494 1496 1501 1502 1501 1501 1494 1490 1485 1481 1480 1475 1477 1479 1482 1479 1478 1475 1473 1475 1476 1480 1482 1490 1494
1524 1519 1515 1511 1506 1503 1501 1498 1495 1493 1492 1492 1492 1493 1493 1493 1488 1491 1491 1492 1494 1496 1501 1501 1501 1498 1491 1484 1483 1486 1478 1481 1480 1482 1481 1478 1477 1477 1477 1479 1480 1478 1481 1487 1493
1523 1519 1514 1510 1505 1503 1499 1496 1493 1492 1491 1490 1490 1491 1492 1493 1492 1491 1490 1490 1493 1496 1500 1500 1498 1495 1488 1482 1483 1483 1481 1481 1481 1480 1479 1479 1476 1477 1479 1481 1479 1479 1480 1484 1491
1523 1519 1514 1510 1505 1502 1498 1496 1494 1492 1490 1489 1490 1491 1492 1489 1493 1491 1491 1492 1496 1498 1499 1499 1497 1494 1490 1485 1484 1481 1483 1481 1480 1479 1481 1476 1477 1476 1482 1480 1479 1480 1480 1482 1487
1522 1518 1514 1509 1505 1502 1498 1496 1494 1493 1491 1491 1491 1492 1494 1494 1494 1494 1494 1496 1498 1498 1498 1499 1497 1496 1489 1484 1483 1484 1481 1473 1476 1476 1475 1476 1475 1481 1482 1480 1480 1481 1483 1484 1486
1522 1518 1514 1509 1504 1501 1498 1495 1494 1493 1493 1492 1492 1492 1492 1494 1495 1496 1497 1497 1498 1498 1498 1497 1497 1494 1490 1486 1483 1478 1470 1474 1472 1475 1476 1475 1480 1480 1480 1479 1483 1485 1485 1486 1489
1522 1517 1513 1508 1503 1500 1497 1494 1493 1493 1493 1493 1494 1492 1491 1493 1495 1495 1496 1496 1497 1497 1497 1498 1497 1492 1487 1483 1474 1470 1469 1472 1473 1476 1474 1473 1473 1479 1479 1482 1485 1487 1488 1488 1490
1521 1517 1512 1508 1503 1500 1497 1495 1493 1493 1493 1493 1493 1496 1492 1491 1493 1494 1495 1496 1496 1496 1497 1496 1492 1484 1479 1473 1482 1472 1473 1470 1478 1471 1473 1473 1474 1478 1481 1480 1486 1489 1491 1492 1493
1520 1516 1512 1507 1503 1500 1497 1494 1497 1496 1493 1488 1486 1487 1487 1491 1493 1494 1495 1496 1495 1494 1487 1489 1484 1478 1468 1473 1475 1476 1478 1478 1472 1474 1477 1471 1478 1478 1482 1480 1484 1489 1491 1494 1495
1519 1515 1511 1507 1503 1501 1499 1499 1499 1500 1490 1488 1488 1488 1489 1490 1489 1491 1494 1493 1491 1485 1483 1485 1480 1472 1479 1479 1479 1477 1478 1473 1471 1474 1477 1470 1477 1475 1481 1483 1485 1487 1491 1494 1496
1518 1514 1511 1507 1504 1502 1502 1500 1498 1498 1493 1484 1484 1484 1487 1490 1484 1487 1491 1488 1485 1481 1480 1476 1474 1481 1480 1477 1479 1472 1476 1476 1480 1472 1468 1470 1472 1471 1480 1482 1485 1487 1490 1494 1497
1516 1513 1510 1507 1506 1504 1503 1500 1499 1498 1484 1478 1480 1482 1485 1484 1483 1483 1486 1486 1482 1477 1478 1474 1477 1481 1478 1479 1477 1475 1475 1479 1479 1480 1481 1466 1487 1470 1470 1476 1481 1485 1489 1492 1497
1515 1512 1509 1505 1505 1504 1503 1500 1498 1499 1491 1470 1475 1479 1480 1480 1476 1484 1485 1485 1479 1478 1481 1476 1479 1481 1483 1478 1481 1479 1477 1479 1477 1478 1473 1466 1475 1470 1467 1475 1477 1483 1491 1494 1496
1514 1510 1507 1506 1503 1504 1501 1500 1499 1494 1489 1472 1471 1475 1476 1477 1476 1480 1484 1486 1481 1479 1478 1475 1480 1481 1477 1481 1483 1481 1478 1471 1466 1467 1480 1459 1468 1466 1462 1469 1474 1482 1490 1494 1495
1510 1507 1504 1504 1504 1502 1500 1499 1491 1485 1463 1468 1469 1467 1468 1469 1471 1475 1478 1481 1480 1490 1483 1477 1478 1479 1484 1482 1478 1478 1475 1483 1479 1473 1470 1462 1478 1470 1464 1470 1476 1484 1489 1492 1493
1507 1504 1502 1501 1501 1501 1500 1494 1497 1463 1463 1464 1465 1464 1467 1463 1467 1471 1471 1475 1471 1474 1474 1479 1489 1478 1481 1482 1484 1483 1487 1494 1507 1489 1472 1465 1481 1473 1465 1474 1483 1487 1489 1490 1492
1504 1503 1502 1502 1501 1500 1500 1489 1475 1462 1464 1470 1466 1469 1466 1465 1471 1471 1472 1468 1463 1471 1483 1475 1479 1477 1480 1484 1486 1483 1490 1474 1489 1474 1482 1464 1459 1460 1467 1475 1480 1484 1486 1488 1492
1502 1501 1499 1499 1499 1500 1493 1485 1470 1472 1476 1474 1473 1463 1467 1464 1472 1468 1467 1465 1471 1477 1476 1474 1490 1471 1479 1485 1483 1485 1480 1490 1477 1502 1501 1470 1469 1469 1470 1471 1477 1484 1486 1487 1490
1502 1498 1495 1498 1498 1495 1484 1469 1469 1477 1480 1475 1469 1465 1467 1461 1465 1461 1463 1468 1475 1475 1477 1472 1481 1477 1479 1482 1481 1482 1482 1483 1477 1484 1495 1495 1475 1462 1470 1472 1479 1484 1486 1488 1490
1504 1494 1494 1496 1494 1480 1474 1470 1481 1477 1479 1476 1474 1466 1466 1465 1470 1468 1468 1469 1477 1478 1480 1474 1477 1482 1475 1471 1477 1479 1483 1477 1490 1494 1477 1484 1483 1465 1471 1475 1479 1479 1485 1488 1491
1504 1496 1493 1494 1483 1471 1471 1478 1480 1476 1475 1472 1472 1470 1468 1470 1479 1470 1469 1478 1482 1482 1482 1479 1484 1489 1481 1471 1470 1484 1479 1479 1481 1483 1495 1500 1483 1459 1466 1470 1473 1479 1484 1488 1491
1507 1488 1486 1489 1483 1480 1471 1475 1475 1481 1478 1478 1473 1472 1472 1475 1471 1475 1476 1479 1486 1484 1490 1490 1488 1491 1491 1477 1475 1481 1479 1476 1479 1489 1482 1476 1471 1466 1466 1471 1474 1481 1485 1489 1490
1505 1492 1495 1477 1479 1480 1479 1476 1473 1473 1480 1478 1475 1474 1472 1478 1473 1476 1473 1474 1485 1490 1492 1490 1494 1488 1482 1479 1477 1477 1477 1476 1478 1474 1482 1474 1473 1468 1468 1471 1477 1479 1482 1485 1485
1508 1503 1498 1492 1491 1489 1485 1480 1477 1471 1475 1475 1478 1469 1471 1475 1472 1474 1471 1473 1477 1481 1488 1485 1493 1492 1492 1482 1479 1480 1474 1471 1471 1470 1469 1469 1469 1464 1472 1475 1476 1477 1480 1481 1482
1512 1510 1507 1492 1488 1486 1477 1475 1478 1476 1478 1479 1477 1476 1478 1476 1474 1475 1476 1475 1477 1481 1483 1486 1489 1494 1493 1477 1475 1483 1470 1465 1464 1463 1465 1472 1466 1470 1476 1479 1479 1480 1480 1480 1480
Wind_Speed
21 21 21 20 18 14 12 10 10 9 9 8 8 8 8 8 9 10 9 9 11 10 8 6 8 7 7 11 8 10 8 8 2 1 8 7 10 8 8 8 7 5 10 10 23
21 22 23 23 19 13 11 10 9 8 8 7 7 6 5 6 7 12 11 14 12 14 11 11 9 7 12 8 6 11 11 8 10 8 8 10 10 13 7 11 8 10 7 16 23
21 23 24 25 18 13 11 10 10 9 8 8 6 4 3 3 3 3 10 10 12 13 11 10 7 9 12 10 10 11 9 10 6 8 8 11 11 10 10 5 15 10 7 16 21
21 23 25 26 17 14 14 13 11 9 8 9 8 5 4 5 1 3 3 8 13 17 11 12 10 12 13 8 4 8 11 4 8 9 11 11 11 7 4 10 7 7 2 16 20
22 24 26 27 17 15 16 11 7 6 4 3 5 7 9 6 4 2 1 10 16 13 14 13 12 13 12 7 4 11 8 7 9 9 7 4 2 5 10 8 8 8 3 14 18
22 24 25 26 18 16 16 8 7 7 4 1 6 9 7 7 4 4 7 11 12 11 13 12 9 9 14 7 8 12 9 9 4 3 1 7 7 2 8 8 9 7 4 8 15
23 24 25 26 21 15 16 7 5 6 5 5 7 8 5 6 7 10 10 9 9 10 9 10 9 10 3 10 4 10 12 8 5 2 4 6 8 9 5 5 10 8 8 4 8
23 24 24 25 23 15 16 7 3 3 4 5 7 6 4 8 8 9 7 6 8 8 8 7 8 11 9 6 11 12 12 11 9 5 5 11 11 8 6 9 10 9 8 7 4
23 24 24 24 22 17 16 5 2 1 2 5 5 2 7 7 8 10 9 6 5 6 7 6 8 14 6 12 12 8 8 1 8 1 4 6 6 10 6 11 12 13 11 9 8
23 23 24 24 19 17 15 7 5 3 1 4 4 6 9 10 8 10 10 6 7 7 8 9 9 10 12 12 7 5 5 7 4 6 5 6 5 7 5 10 11 12 14 14 12
23 23 23 22 17 16 15 9 2 2 8 9 6 2 12 9 8 9 11 9 7 8 12 12 11 13 3 8 7 5 6 7 2 2 9 3 2 3 2 5 8 10 12 13 14
23 22 21 21 13 10 13 5 5 5 7 5 6 6 7 7 9 11 12 12 9 13 4 7 13 10 3 5 6 7 9 7 3 2 8 9 9 8 3 4 6 8 10 11 11
23 22 20 19 9 10 5 6 7 5 8 7 8 10 12 11 10 14 16 12 10 7 10 14 14 3 7 6 9 9 8 8 10 6 14 11 15 14 8 7 7 8 7 11 10
21 21 20 15 5 8 2 10 9 3 6 11 10 8 10 11 8 14 15 6 5 6 3 9 8 4 6 2 8 7 5 6 11 12 12 6 8 15 15 10 5 6 6 11 9
19 19 16 15 7 6 8 11 5 2 5 13 11 12 15 13 16 12 12 10 12 6 9 4 8 7 8 4 6 11 10 11 12 14 15 16 8 13 10 9 8 7 6 8 9
18 17 15 10 6 6 10 9 3 7 3 8 9 12 14 14 11 12 12 11 6 6 8 3 1 5 5 1 6 8 12 15 16 13 13 17 3 8 9 7 11 10 6 6 7
16 14 12 5 3 10 11 5 7 8 4 9 12 12 17 11 12 11 15 14 11 9 14 9 11 5 7 10 10 11 13 10 7 11 1 9 4 6 9 5 6 6 3 6 7
15 13 9 5 6 8 8 9 9 5 2 3 2 9 12 9 10 11 13 14 11 9 11 8 12 11 5 5 9 10 8 8 10 10 10 11 6 4 9 8 4 3 7 10 9
14 7 7 5 6 5 10 9 11 3 5 5 8 12 14 5 9 11 14 14 7 8 11 8 8 8 3 2 4 2 9 9 11 17 10 12 7 10 10 5 5 4 11 8 9
13 7 8 7 5 6 9 14 7 5 6 7 13 11 13 13 12 11 12 5 4 6 7 5 9 13 10 6 10 10 10 10 10 5 10 7 5 5 12 6 5 8 12 14 11
7 7 6 3 4 11 10 5 3 4 7 9 11 10 12 8 7 13 7 8 3 6 9 12 7 6 7 13 13 8 10 6 7 7 9 10 1 5 1 6 6 10 14 16 16
5 6 2 3 12 11 9 4 1 10 8 10 8 11 8 8 9 13 6 3 4 11 9 1 6 10 14 10 3 11 15 14 8 11 8 9 12 10 6 5 9 11 9 11 16
7 12 7 7 7 9 7 8 9 7 9 7 9 10 7 7 8 7 4 10 3 8 7 2 8 11 15 16 12 6 10 9 9 10 14 12 10 1 1 9 9 12 11 13 17
7 4 8 10 13 10 9 8 10 6 10 7 9 1 9 12 6 5 7 8 5 2 8 4 11 13 13 18 14 8 10 11 14 11 14 14 17 15 15 16 12 13 13 14 16
5 1 6 3 4 7 5 8 9 9 11 6 9 12 12 12 12 11 11 11 9 8 7 6 12 13 15 16 17 18 19 20 19 18 18 19 21 18 15 9 10 13 8 14 17
7 5 5 14 7 9 5 10 11 10 2 10 11 11 9 11 11 11 12 9 10 13 8 10 9 10 16 18 18 21 22 21 21 20 21 21 19 8 10 13 14 14 14 15 16
6 7 7 6 9 9 10 10 7 9 4 11 6 7 10 7 7 9 8 9 5 7 8 9 9 11 16 14 15 13 18 19 16 16 15 14 10 13 12 13 14 13 13 14 15
Wind_Direction
12 9 3 356 345 333 323 317 309 301 291 284 280 277 274 270 262 251 249 233 225 199 198 191 206 223 230 254 253 273 257 259 345 47 345 355 337 354 337 305 85 47 40 140 158
9 7 3 357 349 344 337 328 318 307 297 287 280 275 268 269 267 246 241 228 221 201 190 195 208 217 229 241 239 257 293 23 20 333 308 324 321 309 316 343 49 55 73 143 159
7 4 2 360 356 356 347 330 315 302 290 282 271 263 244 235 228 157 224 220 196 185 184 201 237 231 250 246 236 281 298 5 340 17 309 307 290 335 321 305 20 347 105 160 169
5 3 2 1 359 357 344 329 316 303 286 269 256 234 191 170 354 189 220 197 184 169 194 212 231 233 249 239 231 271 282 296 306 316 296 294 326 288 17 20 347 344 289 172 179
4 1 1 1 1 358 351 346 357 355 330 275 208 184 162 209 76 179 176 175 173 175 197 206 223 242 264 292 298 254 285 319 297 301 320 302 49 59 46 1 17 18 43 168 185
2 1 359 0 1 1 2 357 7 9 14 86 151 164 172 234 127 129 124 144 165 181 197 213 237 254 291 291 284 333 301 292 272 115 146 282 105 291 31 354 31 48 71 172 187
0 0 358 357 357 358 0 352 8 32 60 95 137 161 239 88 151 141 135 151 181 184 209 222 243 233 310 251 279 277 264 196 193 81 128 285 155 52 3 3 29 31 60 91 183
356 358 357 354 354 354 353 347 11 54 74 90 144 132 60 134 165 166 168 175 187 215 231 220 233 260 272 302 253 243 226 193 128 281 116 250 101 56 355 47 46 43 71 90 116
353 355 355 354 351 352 353 4 358 106 111 112 133 269 137 163 176 187 179 179 185 199 201 216 232 245 219 237 227 204 248 352 129 146 307 268 43 64 21 58 64 66 61 69 94
349 352 353 352 351 353 359 25 45 121 97 122 207 237 166 195 169 182 194 184 184 169 185 218 226 231 220 235 325 45 315 155 270 137 232 233 97 100 3 79 77 67 72 71 69
346 349 351 351 350 359 17 350 287 192 210 297 152 336 139 157 165 188 188 191 200 216 234 198 233 223 63 13 345 325 288 284 161 77 278 326 316 57 27 40 86 80 79 79 71
342 344 349 349 348 22 27 14 22 328 282 226 215 222 178 184 191 182 181 204 203 233 196 201 234 50 312 291 268 255 265 240 197 120 276 236 247 164 192 84 71 90 87 70 74
338 340 344 350 359 12 10 18 340 323 253 157 193 193 181 193 203 174 188 220 225 228 219 266 69 94 242 201 247 216 303 15 315 309 253 244 252 151 168 156 123 101 89 78 64
336 334 337 349 359 342 343 342 336 293 263 144 178 173 185 207 212 171 198 231 219 283 198 251 100 257 254 279 304 306 69 294 284 288 293 177 281 182 161 158 148 95 43 68 56
332 331 335 338 322 343 307 331 315 253 266 151 134 151 171 211 134 192 197 215 259 180 244 117 192 215 253 31 322 326 335 297 286 278 275 258 236 101 158 184 150 106 55 44 40
326 326 332 338 309 309 324 315 310 233 232 151 149 184 185 210 190 147 191 226 286 230 234 326 320 259 336 218 272 312 278 263 248 253 246 228 260 165 164 185 155 108 67 25 22
322 318 319 308 277 306 320 289 238 251 138 147 188 182 201 179 177 190 198 202 221 212 215 179 210 138 258 245 196 247 294 290 240 214 268 100 244 286 94 91 54 69 4 358 351
319 313 302 276 272 304 313 257 257 326 151 45 245 204 224 173 220 204 226 226 218 280 283 235 182 184 158 291 336 307 317 292 300 299 320 151 240 89 65 121 146 243 355 313 352
320 325 295 263 267 290 273 240 242 305 26 251 187 235 212 188 269 214 225 235 217 209 266 309 224 133 172 229 278 77 259 17 298 259 250 260 102 168 156 189 195 298 320 334 335
327 303 248 235 259 264 253 258 308 322 307 259 255 213 236 194 199 216 198 229 202 265 270 326 280 195 149 240 214 273 338 274 226 287 282 294 295 284 161 196 28 334 325 318 330
333 271 170 253 242 241 244 260 228 176 274 252 255 268 252 265 226 252 222 125 241 182 275 284 223 262 134 224 250 188 234 208 301 299 296 295 60 84 27 342 349 306 313 331 319
285 252 166 234 241 230 257 226 354 254 219 257 268 289 262 243 250 253 252 240 116 284 245 148 283 260 244 115 305 273 279 287 279 294 279 302 285 43 37 328 295 295 319 309 323
301 279 265 225 251 229 206 258 242 239 237 231 239 241 241 260 253 278 248 79 170 248 4 310 244 260 240 239 182 242 270 239 263 276 266 275 277 351 225 248 343 348 344 338 314
295 269 185 219 262 282 301 231 208 216 276 263 275 250 244 245 209 249 244 145 223 296 58 306 272 271 284 316 318 272 234 251 268 271 282 279 296 301 318 313 340 341 331 315 306
247 354 343 272 186 300 290 297 242 209 222 223 233 243 232 239 235 220 230 152 198 133 239 251 269 279 283 290 289 286 282 279 271 267 269 290 295 304 313 352 319 296 314 303 307
305 336 340 279 277 270 208 239 248 255 263 229 238 260 239 256 248 246 244 236 235 164 232 237 262 280 279 276 272 272 272 271 269 269 273 278 284 322 354 325 327 323 310 301 309
336 286 273 290 243 245 252 232 238 275 249 274 322 308 238 304 308 325 299 295 277 278 257 255 276 280 276 286 281 277 265 261 256 263 279 278 321 347 345 334 327 313 303 308 315